Windsor, CA

3:41 AM PST on December 07, 2016 (GMT -0800)
Sonoma County

Weather History for KSTS - October, 2014

Change the Weather History Date:

Friday, October 3, 2014

  Actual Average Record
Temperature  
Mean Temperature 73 °F 64 °F  
Max Temperature 97 °F 80 °F 97 °F (2014)
Min Temperature 49 °F 47 °F 39 °F (1939)
Degree Days  
Heating Degree Days 0    
Month to date heating degree days 0  
Since 1 July heating degree days 14  
Cooling Degree Days 8    
Month to date cooling degree days 18  
Year to date cooling degree days 451  
Growing Degree Days 22 (Base 50)    
Moisture  
Dew Point 38 °F    
Average Humidity 42    
Maximum Humidity 74    
Minimum Humidity 9    
Precipitation  
Precipitation 0.00 in 0.03 in 0.47 in (2011)
Month to date precipitation 0.00 0.07  
Year to date precipitation 13.41 22.60  
Since 1 July precipitation 0.84  
Sea Level Pressure  
Sea Level Pressure 30.02 in    
Wind  
Wind Speed 3 mph (WNW)    
Max Wind Speed 14 mph    
Max Gust Speed 18 mph    
Visibility 10 miles    
Events      
T = Trace of Precipitation, MM = Missing Value Source: NWS Daily Summary

Daily Weather History Graph

Daily Weather History Graph

Search for Another Location

Airport or City:

Trip Planner

Search our weather history database for the weather conditions in past years. The results will help you decide how hot, cold, wet, or windy it might be!

Date:

Astronomy

Oct. 03, 2014 Rise Set
Actual Time 7:08 AM PDT 6:50 PM PDT
Civil Twilight 6:42 AM PDT 7:17 PM PDT
Nautical Twilight 6:11 AM PDT 7:47 PM PDT
Astronomical Twilight 5:40 AM PDT 8:18 PM PDT
Moon 3:45 PM PDT (10/3) 1:39 AM PDT (10/3)
Length of Visible Light 12h 34m
Length of Day
11h 41m
Waxing Gibbous, 72% of the Moon is Illuminated
Oct 3
Waxing Gibbous
Oct 8
Full
Oct 15
Last Quarter
Oct 23
New
Oct 30
First Quarter

Hourly Weather History & Observations

Time (PDT) Temp. Dew Point Humidity Pressure Visibility Wind Dir Wind Speed Gust Speed Precip Events Conditions
12:53 AM 55.9 °F 45.0 °F 67% 30.01 in 10.0 mi Calm Calm - N/A   Clear
1:53 AM 53.1 °F 43.0 °F 69% 30.01 in 10.0 mi NNW 4.6 mph - N/A   Clear
2:53 AM 54.0 °F 43.0 °F 66% 30.01 in 10.0 mi NNW 3.5 mph - N/A   Clear
3:53 AM 52.0 °F 41.0 °F 66% 30.01 in 10.0 mi NW 5.8 mph - N/A   Clear
4:53 AM 50.0 °F 42.1 °F 74% 30.02 in 10.0 mi WNW 3.5 mph - N/A   Clear
5:53 AM 52.0 °F 41.0 °F 66% 30.03 in 10.0 mi North 3.5 mph - N/A   Clear
6:53 AM 51.1 °F 41.0 °F 68% 30.04 in 10.0 mi NW 5.8 mph - N/A   Clear
7:53 AM 51.1 °F 43.0 °F 74% 30.06 in 10.0 mi Calm Calm - N/A   Clear
8:53 AM 62.1 °F 41.0 °F 46% 30.07 in 10.0 mi Calm Calm - N/A   Clear
9:53 AM 70.0 °F 39.0 °F 32% 30.08 in 10.0 mi Calm Calm - N/A   Clear
10:53 AM 79.0 °F 37.0 °F 22% 30.07 in 10.0 mi Variable 3.5 mph - N/A   Clear
11:53 AM 84.9 °F 37.0 °F 18% 30.06 in 10.0 mi Calm Calm - N/A   Clear
12:53 PM 88.0 °F 39.0 °F 18% 30.04 in 10.0 mi South 4.6 mph - N/A   Partly Cloudy
1:53 PM 91.9 °F 36.0 °F 14% 30.01 in 10.0 mi WSW 4.6 mph - N/A   Partly Cloudy
2:53 PM 95.0 °F 30.9 °F 10% 29.99 in 10.0 mi SSW 5.8 mph - N/A   Partly Cloudy
3:53 PM 95.0 °F 26.1 °F 9% 29.97 in 10.0 mi Calm Calm - N/A   Partly Cloudy
4:53 PM 95.0 °F 32.0 °F 11% 29.96 in 10.0 mi West 9.2 mph - N/A   Clear
5:53 PM 90.0 °F 28.0 °F 11% 29.96 in 10.0 mi WSW 8.1 mph - N/A   Clear
6:53 PM 82.0 °F 30.0 °F 15% 29.98 in 10.0 mi WNW 4.6 mph - N/A   Clear
7:53 PM 73.0 °F 39.0 °F 29% 29.99 in 10.0 mi South 4.6 mph - N/A   Clear
8:53 PM 72.0 °F 37.0 °F 28% 30.00 in 10.0 mi SSE 3.5 mph - N/A   Clear
9:53 PM 66.0 °F 39.0 °F 37% 30.01 in 10.0 mi NNW 3.5 mph - N/A   Clear
10:53 PM 62.1 °F 39.9 °F 44% 30.02 in 10.0 mi Calm Calm - N/A   Clear
11:53 PM 57.9 °F 43.0 °F 58% 30.01 in 10.0 mi NW 3.5 mph - N/A   Clear